Location: Key Biscayne
(25.6930°N, 80.1630°W)
Time: 16:49:11
(UTC-04:00)

CZ-2D R/B - Visible Passes

Search period start: 18 April 2015 00:00
Search period end: 28 April 2015 00:00
Orbit: 531 x 548 km, 97.6° (Epoch: 17 April)

Date Brightness Start Highest point End Pass type
(mag) Time Alt. Az. Time Alt. Az. Time Alt. Az.
18 Apr 4.8 20:13:49 10° ESE 20:16:32 19° ENE 20:19:24 10° NNE visible
18 Apr 5.8 21:48:35 12° SW 21:51:00 19° W 21:53:46 10° NW visible
19 Apr 5.1 20:06:51 10° ESE 20:09:03 15° ENE 20:11:26 10° NE visible
19 Apr 5.5 21:40:56 14° SW 21:43:26 24° W 21:46:36 10° NW visible
20 Apr 5.1 21:33:17 15° SSW 21:35:52 30° W 21:39:20 10° NW visible
21 Apr 4.6 21:25:37 17° SSW 21:28:18 39° W 21:31:59 10° NNW visible
22 Apr 4.1 21:17:58 17° S 21:20:45 50° W 21:24:34 10° NNW visible
23 Apr 3.6 21:10:16 17° S 21:13:11 66° W 21:17:05 10° NNW visible
24 Apr 3.2 21:02:35 16° S 21:05:38 86° WSW 21:09:33 10° NNW visible
25 Apr 3.2 20:54:54 15° SSE 20:58:04 73° ENE 21:01:59 10° N visible
26 Apr 3.4 20:47:12 13° SSE 20:50:30 55° ENE 20:54:20 10° N visible
27 Apr 3.7 20:39:29 11° SE 20:42:57 42° ENE 20:46:40 10° N visible
